Location: Chavannes
(47.1090°N, 0.2226°W)
Time: 05:22:30
(UTC+00:00)

Cosmos 2082 - Pass Details

Date: 16 October 2021
Orbit: 835 x 853 km, 71.0° (Epoch: 03 December)

Event Time Altitude Azimuth Distance (km) Brightness Sun altitude
Rises 18:07:08 0° 333° (NNW) 3,397 7.2 -10.2°
Reaches altitude 10° 18:09:35 10° 334° (NNW) 2,457 6.4 -10.6°
Maximum altitude 18:15:14 84° 62° (ENE) 846 3.7 -11.6°
Drops below altitude 10° 18:20:51 10° 152° (SSE) 2,442 5.8 -12.6°
Sets 18:23:17 0° 153° (SSE) 3,373 6.6 -13.0°
